Terminal Aerodrome Forecast
Issued by NWS

Home | Current Version | Previous Version | Text Only | Print | Product List | Glossary On
Versions: 1 2 3 4 5 6 7 8 9 10 11 12 13 14 15 16
000
FTUS42 KJAX 020500
TAFVQQ
TAF
KVQQ 020520Z 0206/0306 15003KT P6SM FEW050 SCT250
     FM021700 10008KT P6SM VCTS SCT035CB BKN250
     FM030100 14003KT P6SM SCT250=

USA.gov is the U.S. government's official web portal to all federal, state and local government web resources and services.